Starlink 32443

operational
NORAD ID: 61672 Int'l Des: 2024-193 Owner: SPXS Country: US Constellation: starlink
LEOCIRCULAR

Starlink 32443について

説明を読み込み中...

リアルタイム位置

3D地球を読み込み中...

次回通過

高度履歴

Altitude vs Time

uPlot chart will show altitude changes over time

軌道要素

1 61672U 24193M 25259.07280269 .00000815 00000-0 39655-4 0 9994
2 61672 53.1599 181.9682 0001333 81.1751 278.9401 15.30181056 49794
Epoch: Sep 16, 2025 • Age: 12 hours

現在のステータス

高度 476.3 km
速度 7.63 km/s
衛星直下点 28.84°N, 139.62°E
打ち上げ日 Oct 26, 2024
運用期間 0.8 years
タイプ internet

技術仕様

分類 Payload
質量 730.00 kg
乾燥質量 700.00 kg
総質量 730.00 kg
長さ 0.30 m
直径 4.10 m
スパン 29.00 m
形状 Box + pan
製造者 SPXS
バスタイプ Starlink V2M
フェーズステータス In Orbit
所有者/国 SPXS/US

大規模コンステレーション

Loading constellations...